Location: Churchill Northern Studies Centre
(58.7378°N, 93.8201°W)
Time: 21:37:56
(UTC-06:00)

Envisat - Pass Details

Date: 12 October 2017
Orbit: 764 x 766 km, 98.2° (Epoch: 12 December)

Event Time Altitude Azimuth Distance (km) Brightness Sun altitude
Exits shadow 20:34:01 16° 161° (SSE) 1,933 4.8 -18.5°
Maximum altitude 20:38:10 89° 69° (ENE) 776 2.9 -19.0°
Drops below altitude 10° 20:43:19 10° 343° (NNW) 2,321 5.9 -19.7°
Sets 20:45:38 0° 344° (NNW) 3,252 6.7 -20.0°
